Location: Lac de la Montange Noire
(46.1952°N, 74.2701°W)
Time: 01:45:56
(UTC-04:00)

Iridium 42 - Visible Passes

Search period start: 01 August 2015 00:00
Search period end: 11 August 2015 00:00
Orbit: 775 x 778 km, 86.4° (Epoch: 31 July)

Date Brightness Start Highest point End Pass type
(mag) Time Alt. Az. Time Alt. Az. Time Alt. Az.
01 Aug 5.4 01:16:03 75° SW 01:16:22 78° W 01:21:36 10° N visible
01 Aug 7.8 02:56:46 10° W 02:58:09 11° WNW 02:59:14 10° NW visible
02 Aug 5.6 00:42:29 59° E 00:42:41 60° E 00:47:50 10° N visible
02 Aug 7.3 02:22:57 18° W 02:23:55 19° WNW 02:27:31 10° NNW visible
03 Aug 6.5 00:08:55 34° E 00:09:06 34° E 00:13:48 10° NNE visible
03 Aug 6.6 01:49:22 32° W 01:49:52 32° WNW 01:54:30 10° NNW visible
03 Aug 7.2 23:35:20 20° E 23:35:38 20° E 23:39:24 10° NNE visible
04 Aug 5.8 01:15:47 56° W 01:15:58 56° W 01:21:07 10° N visible
04 Aug 7.7 23:01:45 11° E 23:02:15 11° ENE 23:03:51 10° ENE visible
05 Aug 5.4 00:42:12 83° E 00:42:12 83° E 00:47:28 10° N visible
05 Aug 7.6 02:22:40 13° W 02:23:46 14° WNW 02:26:17 10° NW visible
06 Aug 6.0 00:08:37 47° E 00:08:37 47° E 00:13:35 10° NNE visible
06 Aug 7.1 01:49:04 23° W 01:49:37 24° WNW 01:53:44 10° NNW visible
06 Aug 6.8 23:35:01 27° E 23:35:03 27° E 23:39:26 10° NNE visible
07 Aug 6.3 01:15:28 40° W 01:15:37 40° W 01:20:32 10° N visible
07 Aug 7.4 23:01:25 16° E 23:01:37 16° ENE 23:04:45 10° NE visible
08 Aug 5.6 00:41:52 71° WNW 00:41:52 71° WNW 00:47:01 10° N visible
09 Aug 5.6 00:08:16 65° ENE 00:08:16 65° ENE 00:13:17 10° N visible
09 Aug 7.5 01:48:43 17° W 01:49:25 17° WNW 01:52:45 10° NNW visible
09 Aug 6.3 23:34:39 37° E 23:34:39 37° E 23:39:18 10° NNE visible
10 Aug 6.8 01:15:06 29° W 01:15:20 29° WNW 01:19:51 10° NNW visible
10 Aug 7.0 23:01:02 22° E 23:01:02 22° E 23:04:58 10° NNE visible
